Telluride, CO

5:50 PM MDT on June 22, 2018 (GMT -0600)
Telluride Regional

Weather History for KTEX - October, 2017

Change the Weather History Date:

Tuesday, October 24, 2017

  Actual Average Record
Temperature  
Mean Temperature 46 °F -  
Max Temperature 60 °F 44 °F 65 °F (2014)
Min Temperature 32 °F 28 °F 21 °F (2001)
Degree Days  
Heating Degree Days 19    
Moisture  
Dew Point 19 °F    
Average Humidity 42    
Maximum Humidity 65    
Minimum Humidity 16    
Precipitation  
Precipitation 0.00 in - - ()
Sea Level Pressure  
Sea Level Pressure 30.63 in    
Wind  
Wind Speed 4 mph (SSE)    
Max Wind Speed 12 mph    
Max Gust Speed 18 mph    
Visibility 10 miles    
Events      
Averages and records for this station are not official NWS values.
T = Trace of Precipitation, MM = Missing Value Source: NWS Daily Summary

Daily Weather History Graph

Daily Weather History Graph

Search for Another Location

Airport or City:

Astronomy

Oct. 24, 2017 Rise Set
Actual Time 7:29 AM MDT 6:21 PM MDT
Civil Twilight 7:02 AM MDT 6:48 PM MDT
Nautical Twilight 6:31 AM MDT 7:19 PM MDT
Astronomical Twilight 6:01 AM MDT 7:49 PM MDT
Moon 11:49 AM MDT (10/24) 10:00 PM MDT (10/24)
Length of Visible Light 11h 46m
Length of Day
10h 52m
Waxing Crescent, 22% of the Moon is Illuminated
Oct 24
Waxing Crescent
Oct 27
First Quarter
Nov 3
Full
Nov 10
Last Quarter
Nov 18
New

Hourly Weather History & Observations

Time (MDT) Temp. Windchill Dew Point Humidity Pressure Visibility Wind Dir Wind Speed Gust Speed Precip Events Conditions
12:15 AM 41.2 °F 36.0 °F 24.6 °F 52% 30.63 in 10.0 mi WSW 8.1 mph - N/A   Clear
12:35 AM 40.6 °F 38.6 °F 24.8 °F 53% 30.63 in 10.0 mi NW 3.5 mph - N/A   Clear
12:55 AM 38.8 °F 36.5 °F 24.8 °F 57% 30.63 in 10.0 mi SSW 3.5 mph - N/A   Clear
1:15 AM 39.4 °F - 24.6 °F 56% 30.63 in 10.0 mi Calm Calm - N/A   Clear
1:35 AM 38.7 °F - 24.4 °F 57% 30.64 in 10.0 mi Calm Calm - N/A   Clear
1:55 AM 38.3 °F - 24.3 °F 57% 30.64 in 10.0 mi Calm Calm - N/A   Clear
2:15 AM 37.4 °F - 24.4 °F 60% 30.64 in 10.0 mi Calm Calm - N/A   Clear
2:35 AM 37.4 °F - 23.7 °F 58% 30.64 in 10.0 mi Calm Calm - N/A   Clear
2:55 AM 36.7 °F - 23.9 °F 60% 30.65 in 10.0 mi Calm Calm - N/A   Clear
3:15 AM 36.3 °F 31.6 °F 23.0 °F 59% 30.65 in 10.0 mi SE 5.8 mph - N/A   Clear
3:35 AM 35.8 °F 30.9 °F 23.0 °F 60% 30.65 in 10.0 mi SE 5.8 mph - N/A   Clear
3:55 AM 35.4 °F 30.5 °F 22.8 °F 60% 30.65 in 10.0 mi SE 5.8 mph - N/A   Clear
4:15 AM 35.2 °F 31.2 °F 23.0 °F 61% 30.65 in 10.0 mi SE 4.6 mph - N/A   Clear
4:35 AM 34.5 °F 29.4 °F 23.0 °F 63% 30.65 in 10.0 mi ESE 5.8 mph - N/A   Clear
4:55 AM 35.1 °F 30.1 °F 22.3 °F 60% 30.65 in 10.0 mi SE 5.8 mph - N/A   Clear
5:15 AM 35.2 °F 30.3 °F 22.1 °F 59% 30.65 in 10.0 mi SSE 5.8 mph - N/A   Clear
5:35 AM 33.8 °F 29.6 °F 22.3 °F 63% 30.65 in 10.0 mi SE 4.6 mph - N/A   Clear
5:55 AM 33.8 °F 27.0 °F 22.5 °F 63% 30.65 in 10.0 mi SSE 8.1 mph - N/A   Clear
6:15 AM 32.9 °F 28.5 °F 21.7 °F 64% 30.66 in 10.0 mi East 4.6 mph - N/A   Clear
6:55 AM 32.0 °F 28.7 °F 21.6 °F 65% 30.66 in 10.0 mi East 3.5 mph - N/A   Clear
7:15 AM - - - N/A% 30.65 in 10.0 mi SE 4.6 mph - N/A   Clear
7:35 AM 33.1 °F 26.9 °F 20.8 °F 61% 30.65 in 10.0 mi SSE 6.9 mph - N/A   Clear
7:55 AM 32.2 °F 25.0 °F 20.7 °F 63% 30.65 in 10.0 mi SE 8.1 mph - N/A   Clear
8:15 AM 33.8 °F 30.8 °F 21.0 °F 60% 30.66 in 10.0 mi SSE 3.5 mph - N/A   Clear
8:35 AM 35.8 °F 33.0 °F 21.2 °F 55% 30.67 in 10.0 mi ESE 3.5 mph - N/A   Clear
8:55 AM 36.5 °F - 20.3 °F 52% 30.67 in 10.0 mi Calm Calm - N/A   Clear
9:15 AM 39.4 °F - 19.8 °F 45% 30.67 in 10.0 mi Calm Calm - N/A   Clear
9:35 AM 41.0 °F - 20.7 °F 44% 30.67 in 10.0 mi Calm Calm - N/A   Clear
9:55 AM 43.0 °F - 19.9 °F 40% 30.67 in 10.0 mi Calm Calm - N/A   Clear
10:15 AM 45.5 °F - 20.7 °F 37% 30.67 in 10.0 mi Calm Calm - N/A   Clear
10:35 AM 46.6 °F - 19.4 °F 34% 30.67 in 10.0 mi Calm Calm - N/A   Clear
10:55 AM 47.3 °F - 19.2 °F 33% 30.66 in 10.0 mi Calm Calm - N/A   Clear
11:15 AM 49.3 °F - 19.8 °F 31% 30.66 in 10.0 mi Calm Calm - N/A   Clear
11:35 AM 51.4 °F - 19.0 °F 28% 30.65 in 10.0 mi WSW 4.6 mph - N/A   Clear
11:55 AM 52.9 °F - 19.0 °F 26% 30.65 in 10.0 mi West 6.9 mph - N/A   Clear
12:15 PM 56.1 °F - 16.5 °F 21% 30.64 in 10.0 mi West 5.8 mph - N/A   Clear
12:35 PM 57.7 °F - 17.6 °F 21% 30.63 in 10.0 mi West 6.9 mph - N/A   Clear
12:55 PM 57.9 °F - 13.8 °F 18% 30.62 in 10.0 mi West 3.5 mph - N/A   Clear
1:15 PM 59.5 °F - 14.7 °F 17% 30.60 in 10.0 mi West 9.2 mph - N/A   Clear
1:35 PM 59.0 °F - 13.6 °F 17% 30.60 in 10.0 mi North 6.9 mph - N/A   Clear
1:55 PM 60.3 °F - 15.8 °F 18% 30.59 in 10.0 mi NNE 4.6 mph - N/A   Clear
2:15 PM 59.5 °F - 14.5 °F 17% 30.58 in 10.0 mi Calm Calm - N/A   Clear
2:35 PM 60.1 °F - 13.5 °F 16% 30.57 in 10.0 mi Calm Calm - N/A   Clear
2:55 PM 58.1 °F - 15.3 °F 19% 30.56 in 10.0 mi North 5.8 mph - N/A   Clear
3:15 PM 57.7 °F - 14.7 °F 18% 30.56 in 10.0 mi North 4.6 mph - N/A   Clear
3:35 PM 56.7 °F - 14.5 °F 19% 30.57 in 10.0 mi North 5.8 mph - N/A   Clear
3:55 PM 57.0 °F - 14.4 °F 19% 30.57 in 10.0 mi Calm Calm - N/A   Clear
4:15 PM 58.1 °F - 13.3 °F 17% 30.56 in 10.0 mi NW 3.5 mph - N/A   Clear
4:35 PM 56.7 °F - 13.8 °F 18% 30.56 in 10.0 mi West 11.5 mph 18.4 mph N/A   Clear
6:55 PM 46.8 °F - 16.3 °F 30% 30.58 in 10.0 mi WNW 3.5 mph - N/A   Clear
7:15 PM - - - N/A% 30.59 in 10.0 mi West 3.5 mph - N/A   Clear
7:55 PM 44.1 °F - 16.7 °F 33% 30.60 in 10.0 mi Calm Calm - N/A   Clear
8:15 PM 43.9 °F - 16.7 °F 34% 30.60 in 10.0 mi Calm Calm - N/A   Clear
8:35 PM 42.1 °F 40.2 °F 17.2 °F 37% 30.60 in 10.0 mi South 3.5 mph - N/A   Clear
8:55 PM 40.6 °F - 17.6 °F 39% 30.60 in 10.0 mi Calm Calm - N/A   Clear
9:15 PM 41.2 °F - 17.1 °F 38% 30.61 in 10.0 mi Calm Calm - N/A   Clear
9:55 PM 39.2 °F 37.0 °F 18.3 °F 43% 30.61 in 10.0 mi ESE 3.5 mph - N/A   Clear
10:15 PM 38.5 °F - 18.0 °F 44% 30.60 in 10.0 mi Calm Calm - N/A   Clear
10:35 PM 37.6 °F 33.1 °F 18.5 °F 46% 30.60 in 10.0 mi SE 5.8 mph - N/A   Clear
10:55 PM 36.7 °F - 18.3 °F 47% 30.60 in 10.0 mi Calm Calm - N/A   Clear
11:15 PM 38.3 °F - 17.6 °F 43% 30.60 in 10.0 mi Calm Calm - N/A   Clear
11:35 PM 39.9 °F 34.5 °F 17.8 °F 41% 30.59 in 10.0 mi SSE 8.1 mph - N/A   Clear
11:55 PM 37.9 °F 32.1 °F 18.1 °F 45% 30.59 in 10.0 mi ESE 8.1 mph - N/A   Clear